• In Latvia
  • List of Countries
  • For 7 days
  • Water Temperature
  • Satellite Maps
  • Weather Map
  • Weather Widgets
  • user-avatar
    Login

    Hourly Weather Andeer

    Today, 15 December, Friday

    Time Temperature Precipitation Wind Pressure Humidity
    00:00 -8°C° 0.5 mm 4 mps 585 mmHg 92%
    01:00 -8°C° 0 mm 4 mps 585 mmHg 93%
    02:00 -8°C° 1.1 mm 4 mps 585 mmHg 94%
    03:00 -7°C° 1.1 mm 3 mps 585 mmHg 96%
    04:00 -6°C° 1.1 mm 2 mps 585 mmHg 97%
    05:00 -7°C° 0.6 mm 2 mps 585 mmHg 97%
    06:00 -6°C° 0.6 mm 1 mps 585 mmHg 96%
    07:00 -7°C° 0 mm 1 mps 585 mmHg 95%
    08:00 -7°C° 0 mm 1 mps 585 mmHg 93%
    09:00 -6°C° 0 mm 1 mps 585 mmHg 91%
    10:00 -6°C° 0 mm 1 mps 585 mmHg 89%
    11:00 -4°C° 0 mm 1 mps 585 mmHg 86%
    12:00 -4°C° 0 mm 1 mps 585 mmHg 83%
    13:00 -3°C° 0 mm 1 mps 586 mmHg 77%
    14:00 -6°C° 0 mm 1 mps 585 mmHg 81%
    15:00 -8°C° 0 mm 2 mps 585 mmHg 85%
    16:00 -9°C° 0 mm 2 mps 584 mmHg 89%
    17:00 -10°C° 0 mm 2 mps 584 mmHg 89%
    18:00 -12°C° 0 mm 2 mps 584 mmHg 89%
    19:00 -14°C° 0 mm 2 mps 583 mmHg 89%
    20:00 -15°C° 0 mm 3 mps 583 mmHg 87%
    21:00 -16°C° 0 mm 3 mps 583 mmHg 85%
    22:00 -16°C° 0 mm 3 mps 583 mmHg 83%
    23:00 -16°C° 0 mm 3 mps 583 mmHg 81%

    Tomorrow, 16 December, Saturday

    Time Temperature Precipitation Wind Pressure Humidity
    00:00 -16°C° 0 mm 3 mps 583 mmHg 79%
    01:00 -16°C° 0 mm 3 mps 584 mmHg 77%
    02:00 -16°C° 0 mm 3 mps 584 mmHg 76%
    03:00 -14°C° 0 mm 2 mps 584 mmHg 76%
    04:00 -14°C° 0 mm 2 mps 585 mmHg 76%
    05:00 -14°C° 0 mm 2 mps 585 mmHg 78%
    06:00 -14°C° 0 mm 2 mps 586 mmHg 79%
    07:00 -14°C° 0 mm 2 mps 586 mmHg 80%
    08:00 -13°C° 0.1 mm 2 mps 587 mmHg 82%
    09:00 -12°C° 0.1 mm 2 mps 588 mmHg 83%
    10:00 -10°C° 0.1 mm 2 mps 589 mmHg 84%
    11:00 -10°C° 0.2 mm 2 mps 590 mmHg 84%
    12:00 -9°C° 0.2 mm 2 mps 590 mmHg 83%
    13:00 -8°C° 0.2 mm 2 mps 591 mmHg 83%
    14:00 -9°C° 0.4 mm 2 mps 591 mmHg 85%
    15:00 -9°C° 0.4 mm 2 mps 591 mmHg 88%
    16:00 -10°C° 0.4 mm 2 mps 591 mmHg 90%
    17:00 -10°C° 0.4 mm 2 mps 592 mmHg 91%
    18:00 -12°C° 0.4 mm 3 mps 592 mmHg 91%
    19:00 -12°C° 0.4 mm 3 mps 593 mmHg 91%
    20:00 -12°C° 0.3 mm 3 mps 593 mmHg 91%
    21:00 -13°C° 0.3 mm 3 mps 594 mmHg 91%
    22:00 -12°C° 0.3 mm 2 mps 594 mmHg 91%
    23:00 -12°C° 0.2 mm 2 mps 594 mmHg 90%

    Day after tomorrow, 17 December, Sunday

    Time Temperature Precipitation Wind Pressure Humidity
    00:00 -12°C° 0.2 mm 2 mps 594 mmHg 90%
    01:00 -12°C° 0.2 mm 2 mps 594 mmHg 90%
    02:00 -13°C° 0.2 mm 2 mps 594 mmHg 89%
    03:00 -13°C° 0.2 mm 2 mps 595 mmHg 89%
    04:00 -13°C° 0.2 mm 2 mps 595 mmHg 89%
    05:00 -13°C° 0.3 mm 2 mps 595 mmHg 89%
    06:00 -13°C° 0.3 mm 2 mps 595 mmHg 89%
    07:00 -13°C° 0.3 mm 2 mps 596 mmHg 89%
    08:00 -14°C° 0.1 mm 3 mps 596 mmHg 88%
    09:00 -14°C° 0.1 mm 3 mps 597 mmHg 87%
    10:00 -13°C° 0.1 mm 3 mps 597 mmHg 86%
    11:00 -13°C° 0 mm 3 mps 598 mmHg 84%
    12:00 -12°C° 0 mm 3 mps 598 mmHg 81%
    13:00 -12°C° 0 mm 3 mps 598 mmHg 79%
    14:00 -13°C° 0 mm 3 mps 598 mmHg 81%
    15:00 -14°C° 0 mm 3 mps 598 mmHg 84%
    16:00 -15°C° 0 mm 3 mps 597 mmHg 87%
    17:00 -15°C° 0 mm 3 mps 598 mmHg 87%
    18:00 -16°C° 0 mm 3 mps 598 mmHg 87%
    19:00 -17°C° 0 mm 3 mps 598 mmHg 87%
    20:00 -18°C° 0 mm 3 mps 599 mmHg 86%
    21:00 -18°C° 0 mm 3 mps 599 mmHg 85%
    22:00 -18°C° 0 mm 3 mps 599 mmHg 84%
    23:00 -18°C° 0 mm 3 mps 599 mmHg 83%

    18 December, Monday

    Time Temperature Precipitation Wind Pressure Humidity
    00:00 -18°C° 0 mm 3 mps 599 mmHg 82%
    01:00 -18°C° 0 mm 3 mps 600 mmHg 82%
    02:00 -18°C° 0 mm 3 mps 600 mmHg 80%
    03:00 -17°C° 0 mm 3 mps 600 mmHg 78%
    04:00 -17°C° 0 mm 3 mps 600 mmHg 76%
    05:00 -16°C° 0 mm 3 mps 600 mmHg 76%
    06:00 -15°C° 0 mm 3 mps 601 mmHg 75%
    07:00 -14°C° 0 mm 3 mps 601 mmHg 74%
    08:00 -10°C° 0.3 mm 2 mps 601 mmHg 78%
    09:00 -9°C° 0.3 mm 2 mps 601 mmHg 81%
    10:00 -8°C° 0.3 mm 2 mps 601 mmHg 85%
    11:00 -7°C° 1.3 mm 2 mps 601 mmHg 87%
    12:00 -7°C° 1.3 mm 2 mps 601 mmHg 88%
    13:00 -6°C° 1.3 mm 2 mps 600 mmHg 90%
    14:00 -6°C° 1.2 mm 2 mps 600 mmHg 91%
    15:00 -6°C° 1.2 mm 2 mps 600 mmHg 93%
    16:00 -6°C° 1.2 mm 2 mps 600 mmHg 94%
    17:00 -7°C° 0.8 mm 3 mps 600 mmHg 94%
    18:00 -8°C° 0.8 mm 3 mps 600 mmHg 95%
    19:00 -9°C° 0.8 mm 4 mps 600 mmHg 95%
    20:00 -8°C° 0.4 mm 3 mps 601 mmHg 94%
    21:00 -9°C° 0.4 mm 3 mps 601 mmHg 94%
    22:00 -9°C° 0.4 mm 3 mps 602 mmHg 94%
    23:00 -10°C° 0 mm 3 mps 602 mmHg 93%

    19 December, Tuesday

    Time Temperature Precipitation Wind Pressure Humidity
    00:00 -12°C° 0 mm 3 mps 602 mmHg 93%
    01:00 -12°C° 0 mm 2 mps 602 mmHg 93%
    02:00 -13°C° 0 mm 2 mps 602 mmHg 92%
    03:00 -13°C° 0 mm 2 mps 602 mmHg 91%
    04:00 -14°C° 0 mm 2 mps 602 mmHg 90%
    05:00 -14°C° 0 mm 2 mps 602 mmHg 88%
    06:00 -14°C° 0 mm 2 mps 602 mmHg 86%
    07:00 -14°C° 0 mm 2 mps 603 mmHg 84%
    08:00 -13°C° 0 mm 2 mps 604 mmHg 81%
    09:00 -12°C° 0 mm 2 mps 604 mmHg 79%
    10:00 -9°C° 0 mm 2 mps 605 mmHg 76%
    11:00 -8°C° 0 mm 2 mps 605 mmHg 75%
    12:00 -7°C° 0 mm 2 mps 606 mmHg 74%
    13:00 -5°C° 0 mm 2 mps 606 mmHg 73%
    14:00 -7°C° 0 mm 2 mps 606 mmHg 76%
    15:00 -8°C° 0 mm 2 mps 605 mmHg 80%
    16:00 -9°C° 0 mm 2 mps 605 mmHg 83%
    17:00 -10°C° 0 mm 2 mps 605 mmHg 79%
    18:00 -12°C° 0 mm 2 mps 605 mmHg 75%
    19:00 -13°C° 0 mm 2 mps 605 mmHg 71%
    20:00 -13°C° 0 mm 2 mps 605 mmHg 69%
    21:00 -13°C° 0 mm 2 mps 605 mmHg 67%
    22:00 -13°C° 0 mm 2 mps 605 mmHg 65%
    23:00 -12°C° 0 mm 2 mps 605 mmHg 65%

    20 December, Wednesday

    Time Temperature Precipitation Wind Pressure Humidity
    00:00 -12°C° 0 mm 2 mps 605 mmHg 64%
    01:00 -12°C° 0 mm 2 mps 606 mmHg 64%
    02:00 -13°C° 0 mm 3 mps 606 mmHg 64%
    03:00 -13°C° 0 mm 3 mps 606 mmHg 63%
    04:00 -13°C° 0 mm 3 mps 606 mmHg 63%
    05:00 -12°C° 0 mm 3 mps 606 mmHg 63%
    06:00 -12°C° 0 mm 3 mps 606 mmHg 63%
    07:00 -12°C° 0 mm 3 mps 606 mmHg 63%
    08:00 -10°C° 0 mm 3 mps 607 mmHg 65%
    09:00 -8°C° 0 mm 3 mps 608 mmHg 67%
    10:00 -7°C° 0 mm 3 mps 608 mmHg 69%
    11:00 -6°C° 0 mm 3 mps 609 mmHg 73%
    12:00 -4°C° 0 mm 3 mps 609 mmHg 77%
    13:00 -2°C° 0 mm 3 mps 609 mmHg 81%
    14:00 -3°C° 0 mm 2 mps 609 mmHg 83%
    15:00 -4°C° 0 mm 2 mps 609 mmHg 84%
    16:00 -4°C° 0 mm 2 mps 608 mmHg 85%
    17:00 -5°C° 0 mm 2 mps 608 mmHg 86%
    18:00 -6°C° 0 mm 3 mps 608 mmHg 87%
    19:00 -7°C° 0 mm 3 mps 608 mmHg 88%
    20:00 -7°C° 0 mm 3 mps 609 mmHg 88%
    21:00 -6°C° 0 mm 2 mps 609 mmHg 89%
    22:00 -5°C° 0 mm 2 mps 609 mmHg 90%
    23:00 -6°C° 0 mm 2 mps 609 mmHg 90%
    Show more